Location: Kumla
(59.1265°N, 15.1401°E)
Time: 17:38:38
(UTC+01:00)

A-11 Canister half - Pass Details

Date: 10 December 2023
Orbit: 1526 x 1682 km, 47.3° (Epoch: 24 February)

Event Time Altitude Azimuth Distance (km) Brightness Sun altitude
Rises 23:30:01 0° 278° (W) 4,932 11.8 -53.6°
Enters shadow 23:31:48 - 273° (W) 4,455 11.5 -53.6°
Reaches altitude 10° 23:33:55 10° 266° (W) 3,931 - -53.7°
Maximum altitude 23:41:28 25° 217° (SW) 2,874 - -53.8°
Drops below altitude 10° 23:48:53 10° 167° (SSE) 3,844 - -53.8°
Sets 23:52:39 0° 155° (SSE) 4,802 - -53.8°
